1597183209,2020-08-12 00:00,440.00,-30
1597183269,2020-08-12 00:01,444.00,-30
1597183330,2020-08-12 00:02,442.00,-30
1597183390,2020-08-12 00:03,440.00,-30
1597183450,2020-08-12 00:04,439.00,-31
1597183510,2020-08-12 00:05,440.00,-32
1597183570,2020-08-12 00:06,441.00,-30
1597183630,2020-08-12 00:07,443.00,-32
1597183690,2020-08-12 00:08,440.00,-31
1597183750,2020-08-12 00:09,442.00,-30
1597183810,2020-08-12 00:10,441.00,-30
1597183870,2020-08-12 00:11,443.00,-31
1597183931,2020-08-12 00:12,441.00,-33
1597183991,2020-08-12 00:13,442.00,-30
1597184051,2020-08-12 00:14,442.00,-33
1597184111,2020-08-12 00:15,443.00,-30
1597184171,2020-08-12 00:16,438.00,-30
1597184231,2020-08-12 00:17,441.00,-31
1597184291,2020-08-12 00:18,441.00,-30
1597184351,2020-08-12 00:19,440.00,-30
1597184411,2020-08-12 00:20,440.00,-30
1597184471,2020-08-12 00:21,441.00,-31
1597184531,2020-08-12 00:22,443.00,-30
1597184592,2020-08-12 00:23,443.00,-30
1597184652,2020-08-12 00:24,443.00,-30
1597184712,2020-08-12 00:25,445.00,-31
1597184772,2020-08-12 00:26,447.00,-30
1597184832,2020-08-12 00:27,447.00,-31
1597184892,2020-08-12 00:28,446.00,-31
1597184952,2020-08-12 00:29,446.00,-31
1597185012,2020-08-12 00:30,446.00,-30
1597185072,2020-08-12 00:31,445.00,-31
1597185132,2020-08-12 00:32,444.00,-31
1597185192,2020-08-12 00:33,445.00,-32
1597185252,2020-08-12 00:34,444.00,-31
1597185312,2020-08-12 00:35,444.00,-30
1597185373,2020-08-12 00:36,444.00,-30
1597185433,2020-08-12 00:37,444.00,-30
1597185493,2020-08-12 00:38,444.00,-30
1597185553,2020-08-12 00:39,444.00,-30
1597185613,2020-08-12 00:40,442.00,-30
1597185673,2020-08-12 00:41,443.00,-32
1597185733,2020-08-12 00:42,443.00,-30
1597185793,2020-08-12 00:43,441.00,-30
1597185853,2020-08-12 00:44,440.00,-30
1597185913,2020-08-12 00:45,441.00,-32
1597185973,2020-08-12 00:46,441.00,-30
1597186033,2020-08-12 00:47,442.00,-32
1597186093,2020-08-12 00:48,441.00,-30
1597186153,2020-08-12 00:49,440.00,-30
1597186213,2020-08-12 00:50,439.00,-30
1597186273,2020-08-12 00:51,436.00,-30
1597186333,2020-08-12 00:52,440.00,-30
1597186393,2020-08-12 00:53,437.00,-31
1597186453,2020-08-12 00:54,437.00,-30
1597186514,2020-08-12 00:55,439.00,-30
1597186574,2020-08-12 00:56,435.00,-30
1597186634,2020-08-12 00:57,436.00,-31
1597186694,2020-08-12 00:58,431.00,-30
1597186754,2020-08-12 00:59,429.00,-30
1597186814,2020-08-12 01:00,430.00,-30
1597186874,2020-08-12 01:01,429.00,-30
1597186934,2020-08-12 01:02,432.00,-30
1597186994,2020-08-12 01:03,431.00,-30
1597187054,2020-08-12 01:04,431.00,-30
1597187114,2020-08-12 01:05,433.00,-30
1597187174,2020-08-12 01:06,434.00,-30
1597187234,2020-08-12 01:07,433.00,-31
1597187294,2020-08-12 01:08,434.00,-30
1597187354,2020-08-12 01:09,434.00,-31
1597187414,2020-08-12 01:10,431.00,-31
1597187474,2020-08-12 01:11,436.00,-30
1597187534,2020-08-12 01:12,437.00,-31
1597187594,2020-08-12 01:13,434.00,-30
1597187655,2020-08-12 01:14,434.00,-30
1597187715,2020-08-12 01:15,435.00,-31
1597187775,2020-08-12 01:16,437.00,-31
1597187835,2020-08-12 01:17,433.00,-30
1597187895,2020-08-12 01:18,433.00,-30
1597187955,2020-08-12 01:19,435.00,-30
1597188015,2020-08-12 01:20,437.00,-30
1597188075,2020-08-12 01:21,435.00,-31
1597188135,2020-08-12 01:22,436.00,-32
1597188195,2020-08-12 01:23,435.00,-30
1597188255,2020-08-12 01:24,432.00,-31
1597188315,2020-08-12 01:25,438.00,-31
1597188375,2020-08-12 01:26,436.00,-30
1597188435,2020-08-12 01:27,435.00,-30
1597188495,2020-08-12 01:28,435.00,-32
1597188555,2020-08-12 01:29,438.00,-30
1597188615,2020-08-12 01:30,437.00,-30
1597188675,2020-08-12 01:31,437.00,-32
1597188735,2020-08-12 01:32,438.00,-30
1597188795,2020-08-12 01:33,440.00,-31
1597188856,2020-08-12 01:34,437.00,-31
1597188916,2020-08-12 01:35,435.00,-31
1597188976,2020-08-12 01:36,437.00,-31
1597189036,2020-08-12 01:37,437.00,-31
1597189096,2020-08-12 01:38,438.00,-32
1597189156,2020-08-12 01:39,438.00,-31
1597189216,2020-08-12 01:40,437.00,-32
1597189276,2020-08-12 01:41,439.00,-31
1597189336,2020-08-12 01:42,436.00,-32
1597189396,2020-08-12 01:43,437.00,-30
1597189456,2020-08-12 01:44,436.00,-32
1597189516,2020-08-12 01:45,437.00,-30
1597189576,2020-08-12 01:46,434.00,-31
1597189636,2020-08-12 01:47,433.00,-31
1597189696,2020-08-12 01:48,434.00,-32
1597189756,2020-08-12 01:49,434.00,-30
1597189816,2020-08-12 01:50,435.00,-31
1597189876,2020-08-12 01:51,436.00,-30
1597189936,2020-08-12 01:52,436.00,-32
1597189996,2020-08-12 01:53,434.00,-30
1597190057,2020-08-12 01:54,434.00,-30
1597190117,2020-08-12 01:55,436.00,-31
1597190177,2020-08-12 01:56,433.00,-31
1597190237,2020-08-12 01:57,433.00,-31
1597190297,2020-08-12 01:58,434.00,-31
1597190357,2020-08-12 01:59,436.00,-31
1597190417,2020-08-12 02:00,435.00,-31
1597190477,2020-08-12 02:01,437.00,-32
1597190537,2020-08-12 02:02,438.00,-31
1597190597,2020-08-12 02:03,437.00,-31
1597190657,2020-08-12 02:04,437.00,-31
1597190717,2020-08-12 02:05,435.00,-31
1597190777,2020-08-12 02:06,432.00,-32
1597190837,2020-08-12 02:07,434.00,-34
1597190897,2020-08-12 02:08,432.00,-33
1597190957,2020-08-12 02:09,431.00,-33
1597191017,2020-08-12 02:10,432.00,-34
1597191077,2020-08-12 02:11,435.00,-33
1597191137,2020-08-12 02:12,434.00,-33
1597191197,2020-08-12 02:13,433.00,-33
1597191257,2020-08-12 02:14,434.00,-32
1597191317,2020-08-12 02:15,436.00,-32
1597191378,2020-08-12 02:16,435.00,-33
1597191438,2020-08-12 02:17,433.00,-32
1597191498,2020-08-12 02:18,434.00,-32
1597191558,2020-08-12 02:19,434.00,-33
1597191618,2020-08-12 02:20,434.00,-33
1597191678,2020-08-12 02:21,433.00,-32
1597191738,2020-08-12 02:22,436.00,-30
1597191798,2020-08-12 02:23,434.00,-31
1597191858,2020-08-12 02:24,434.00,-32
1597191918,2020-08-12 02:25,434.00,-30
1597191978,2020-08-12 02:26,436.00,-30
1597192038,2020-08-12 02:27,437.00,-30
1597192098,2020-08-12 02:28,436.00,-32
1597192159,2020-08-12 02:29,435.00,-30
1597192219,2020-08-12 02:30,439.00,-31
1597192279,2020-08-12 02:31,438.00,-31
1597192339,2020-08-12 02:32,440.00,-30
1597192399,2020-08-12 02:33,439.00,-30
1597192459,2020-08-12 02:34,437.00,-30
1597192519,2020-08-12 02:35,440.00,-31
1597192579,2020-08-12 02:36,438.00,-31
1597192639,2020-08-12 02:37,438.00,-31
1597192699,2020-08-12 02:38,438.00,-30
1597192759,2020-08-12 02:39,438.00,-30
1597192819,2020-08-12 02:40,435.00,-31
1597192879,2020-08-12 02:41,440.00,-30
1597192939,2020-08-12 02:42,438.00,-30
1597192999,2020-08-12 02:43,438.00,-32
1597193059,2020-08-12 02:44,437.00,-31
1597193119,2020-08-12 02:45,433.00,-31
1597193179,2020-08-12 02:46,435.00,-30
1597193239,2020-08-12 02:47,435.00,-31
1597193299,2020-08-12 02:48,434.00,-31
1597193359,2020-08-12 02:49,433.00,-31
1597193420,2020-08-12 02:50,432.00,-31
1597193480,2020-08-12 02:51,433.00,-31
1597193540,2020-08-12 02:52,429.00,-30
1597193600,2020-08-12 02:53,431.00,-32
1597193660,2020-08-12 02:54,432.00,-30
1597193720,2020-08-12 02:55,432.00,-31
1597193780,2020-08-12 02:56,432.00,-30
1597193840,2020-08-12 02:57,434.00,-30
1597193900,2020-08-12 02:58,434.00,-31
1597193960,2020-08-12 02:59,435.00,-31
1597194020,2020-08-12 03:00,435.00,-33
1597194080,2020-08-12 03:01,437.00,-32
1597194140,2020-08-12 03:02,434.00,-30
1597194201,2020-08-12 03:03,439.00,-31
1597194261,2020-08-12 03:04,437.00,-33
1597194321,2020-08-12 03:05,440.00,-30
1597194381,2020-08-12 03:06,442.00,-31
1597194441,2020-08-12 03:07,441.00,-31
1597194501,2020-08-12 03:08,438.00,-32
1597194561,2020-08-12 03:09,439.00,-33
1597194621,2020-08-12 03:10,439.00,-31
1597194681,2020-08-12 03:11,438.00,-30
1597194741,2020-08-12 03:12,437.00,-31
1597194801,2020-08-12 03:13,438.00,-30
1597194861,2020-08-12 03:14,439.00,-31
1597194921,2020-08-12 03:15,437.00,-32
1597194981,2020-08-12 03:16,438.00,-30
1597195041,2020-08-12 03:17,434.00,-31
1597195101,2020-08-12 03:18,437.00,-30
1597195161,2020-08-12 03:19,436.00,-31
1597195222,2020-08-12 03:20,441.00,-30
1597195282,2020-08-12 03:21,439.00,-31
1597195342,2020-08-12 03:22,438.00,-30
1597195402,2020-08-12 03:23,438.00,-31
1597195462,2020-08-12 03:24,441.00,-31
1597195522,2020-08-12 03:25,440.00,-31
1597195582,2020-08-12 03:26,438.00,-30
1597195642,2020-08-12 03:27,441.00,-30
1597195702,2020-08-12 03:28,441.00,-31
1597195762,2020-08-12 03:29,438.00,-30
1597195822,2020-08-12 03:30,440.00,-30
1597195882,2020-08-12 03:31,437.00,-30
1597195942,2020-08-12 03:32,437.00,-32
1597196002,2020-08-12 03:33,438.00,-30
1597196062,2020-08-12 03:34,438.00,-30
1597196122,2020-08-12 03:35,438.00,-30
1597196182,2020-08-12 03:36,436.00,-32
1597196242,2020-08-12 03:37,439.00,-30
1597196302,2020-08-12 03:38,437.00,-31
1597196362,2020-08-12 03:39,439.00,-30
1597196422,2020-08-12 03:40,436.00,-30
1597196483,2020-08-12 03:41,437.00,-30
1597196543,2020-08-12 03:42,442.00,-31
1597196603,2020-08-12 03:43,439.00,-31
1597196663,2020-08-12 03:44,439.00,-31
1597196723,2020-08-12 03:45,436.00,-30
1597196783,2020-08-12 03:46,438.00,-30
1597196843,2020-08-12 03:47,437.00,-31
1597196903,2020-08-12 03:48,438.00,-32
1597196963,2020-08-12 03:49,437.00,-30
1597197023,2020-08-12 03:50,440.00,-30
1597197083,2020-08-12 03:51,440.00,-31
1597197143,2020-08-12 03:52,443.00,-30
1597197203,2020-08-12 03:53,442.00,-32
1597197263,2020-08-12 03:54,443.00,-35
1597197323,2020-08-12 03:55,441.00,-30
1597197383,2020-08-12 03:56,442.00,-31
1597197443,2020-08-12 03:57,446.00,-30
1597197503,2020-08-12 03:58,439.00,-31
1597197563,2020-08-12 03:59,437.00,-32
1597197623,2020-08-12 04:00,439.00,-30
1597197683,2020-08-12 04:01,438.00,-31
1597197743,2020-08-12 04:02,437.00,-32
1597197803,2020-08-12 04:03,437.00,-31
1597197863,2020-08-12 04:04,436.00,-30
1597197923,2020-08-12 04:05,438.00,-31
1597197984,2020-08-12 04:06,438.00,-30
1597198044,2020-08-12 04:07,438.00,-30
1597198104,2020-08-12 04:08,434.00,-32
1597198164,2020-08-12 04:09,438.00,-30
1597198224,2020-08-12 04:10,440.00,-31
1597198284,2020-08-12 04:11,440.00,-32
1597198344,2020-08-12 04:12,438.00,-31
1597198404,2020-08-12 04:13,440.00,-31
1597198464,2020-08-12 04:14,442.00,-31
1597198524,2020-08-12 04:15,444.00,-31
1597198584,2020-08-12 04:16,440.00,-32
1597198644,2020-08-12 04:17,440.00,-32
1597198704,2020-08-12 04:18,442.00,-30
1597198765,2020-08-12 04:19,441.00,-31
1597198825,2020-08-12 04:20,439.00,-30
1597198885,2020-08-12 04:21,439.00,-33
1597198945,2020-08-12 04:22,440.00,-31
1597199005,2020-08-12 04:23,437.00,-30
1597199065,2020-08-12 04:24,439.00,-32
1597199125,2020-08-12 04:25,440.00,-32
1597199185,2020-08-12 04:26,440.00,-30
1597199245,2020-08-12 04:27,440.00,-30
1597199305,2020-08-12 04:28,440.00,-31
1597199365,2020-08-12 04:29,441.00,-30
1597199425,2020-08-12 04:30,436.00,-30
1597199485,2020-08-12 04:31,440.00,-30
1597199545,2020-08-12 04:32,441.00,-30
1597199606,2020-08-12 04:33,442.00,-30
1597199666,2020-08-12 04:34,440.00,-31
1597199726,2020-08-12 04:35,442.00,-31
1597199786,2020-08-12 04:36,440.00,-32
1597199846,2020-08-12 04:37,439.00,-30
1597199906,2020-08-12 04:38,439.00,-31
1597199966,2020-08-12 04:39,439.00,-31
1597200026,2020-08-12 04:40,441.00,-32
1597200086,2020-08-12 04:41,440.00,-30
1597200146,2020-08-12 04:42,439.00,-31
1597200206,2020-08-12 04:43,440.00,-33
1597200266,2020-08-12 04:44,439.00,-31
1597200326,2020-08-12 04:45,438.00,-30
1597200386,2020-08-12 04:46,437.00,-31
1597200446,2020-08-12 04:47,441.00,-31
1597200506,2020-08-12 04:48,443.00,-32
1597200566,2020-08-12 04:49,440.00,-30
1597200626,2020-08-12 04:50,439.00,-31
1597200686,2020-08-12 04:51,440.00,-31
1597200746,2020-08-12 04:52,442.00,-35
1597200806,2020-08-12 04:53,441.00,-36
1597200866,2020-08-12 04:54,440.00,-36
1597200927,2020-08-12 04:55,441.00,-30
1597200987,2020-08-12 04:56,440.00,-31
1597201047,2020-08-12 04:57,438.00,-31
1597201107,2020-08-12 04:58,439.00,-31
1597201167,2020-08-12 04:59,439.00,-32
1597201227,2020-08-12 05:00,441.00,-30
1597201287,2020-08-12 05:01,442.00,-32
1597201347,2020-08-12 05:02,441.00,-31
1597201407,2020-08-12 05:03,443.00,-31
1597201467,2020-08-12 05:04,443.00,-32
1597201527,2020-08-12 05:05,440.00,-30
1597201587,2020-08-12 05:06,442.00,-30
1597201647,2020-08-12 05:07,443.00,-31
1597201707,2020-08-12 05:08,439.00,-30
1597201767,2020-08-12 05:09,442.00,-31
1597201827,2020-08-12 05:10,439.00,-31
1597201887,2020-08-12 05:11,443.00,-31
1597201947,2020-08-12 05:12,441.00,-31
1597202007,2020-08-12 05:13,442.00,-30
1597202068,2020-08-12 05:14,445.00,-30
1597202128,2020-08-12 05:15,443.00,-33
1597202188,2020-08-12 05:16,443.00,-31
1597202248,2020-08-12 05:17,445.00,-32
1597202308,2020-08-12 05:18,447.00,-32
1597202368,2020-08-12 05:19,447.00,-32
1597202428,2020-08-12 05:20,446.00,-30
1597202488,2020-08-12 05:21,447.00,-30
1597202548,2020-08-12 05:22,445.00,-30
1597202608,2020-08-12 05:23,446.00,-31
1597202668,2020-08-12 05:24,447.00,-32
1597202728,2020-08-12 05:25,445.00,-31
1597202789,2020-08-12 05:26,450.00,-30
1597202849,2020-08-12 05:27,447.00,-31
1597202909,2020-08-12 05:28,451.00,-30
1597202969,2020-08-12 05:29,452.00,-32
1597203029,2020-08-12 05:30,449.00,-31
1597203089,2020-08-12 05:31,451.00,-30
1597203149,2020-08-12 05:32,451.00,-32
1597203209,2020-08-12 05:33,454.00,-32
1597203269,2020-08-12 05:34,449.00,-31
1597203329,2020-08-12 05:35,451.00,-32
1597203389,2020-08-12 05:36,451.00,-30
1597203449,2020-08-12 05:37,451.00,-30
1597203509,2020-08-12 05:38,453.00,-30
1597203569,2020-08-12 05:39,451.00,-31
1597203629,2020-08-12 05:40,452.00,-30
1597203689,2020-08-12 05:41,448.00,-30
1597203749,2020-08-12 05:42,453.00,-30
1597203809,2020-08-12 05:43,450.00,-31
1597203869,2020-08-12 05:44,451.00,-30
1597203929,2020-08-12 05:45,451.00,-32
1597203989,2020-08-12 05:46,453.00,-30
1597204049,2020-08-12 05:47,452.00,-31
1597204110,2020-08-12 05:48,452.00,-31
1597204170,2020-08-12 05:49,453.00,-30
1597204230,2020-08-12 05:50,452.00,-31
1597204290,2020-08-12 05:51,450.00,-31
1597204350,2020-08-12 05:52,452.00,-31
1597204410,2020-08-12 05:53,452.00,-31
1597204470,2020-08-12 05:54,451.00,-30
1597204530,2020-08-12 05:55,451.00,-31
1597204590,2020-08-12 05:56,451.00,-31
1597204650,2020-08-12 05:57,452.00,-31
1597204710,2020-08-12 05:58,453.00,-31
1597204770,2020-08-12 05:59,450.00,-31
1597204830,2020-08-12 06:00,452.00,-31
1597204890,2020-08-12 06:01,451.00,-31
1597204950,2020-08-12 06:02,451.00,-31
1597205010,2020-08-12 06:03,453.00,-32
1597205070,2020-08-12 06:04,452.00,-30
1597205130,2020-08-12 06:05,450.00,-30
1597205191,2020-08-12 06:06,451.00,-31
1597205251,2020-08-12 06:07,447.00,-31
1597205311,2020-08-12 06:08,450.00,-30
1597205371,2020-08-12 06:09,449.00,-31
1597205431,2020-08-12 06:10,450.00,-30
1597205491,2020-08-12 06:11,449.00,-30
1597205551,2020-08-12 06:12,449.00,-31
1597205611,2020-08-12 06:13,447.00,-32
1597205671,2020-08-12 06:14,451.00,-30
1597205731,2020-08-12 06:15,450.00,-30
1597205791,2020-08-12 06:16,448.00,-30
1597205851,2020-08-12 06:17,454.00,-30
1597205911,2020-08-12 06:18,452.00,-32
1597205971,2020-08-12 06:19,451.00,-31
1597206032,2020-08-12 06:20,451.00,-30
1597206092,2020-08-12 06:21,451.00,-31
1597206152,2020-08-12 06:22,452.00,-30
1597206212,2020-08-12 06:23,451.00,-30
1597206272,2020-08-12 06:24,447.00,-31
1597206332,2020-08-12 06:25,452.00,-31
1597206392,2020-08-12 06:26,451.00,-31
1597206452,2020-08-12 06:27,452.00,-30
1597206512,2020-08-12 06:28,453.00,-32
1597206572,2020-08-12 06:29,452.00,-30
1597206632,2020-08-12 06:30,449.00,-31
1597206692,2020-08-12 06:31,446.00,-32
1597206752,2020-08-12 06:32,447.00,-30
1597206812,2020-08-12 06:33,445.00,-30
1597206872,2020-08-12 06:34,445.00,-32
1597206932,2020-08-12 06:35,443.00,-30
1597206993,2020-08-12 06:36,442.00,-30
1597207053,2020-08-12 06:37,444.00,-31
1597207113,2020-08-12 06:38,444.00,-30
1597207173,2020-08-12 06:39,443.00,-30
1597207233,2020-08-12 06:40,444.00,-31
1597207293,2020-08-12 06:41,444.00,-31
1597207353,2020-08-12 06:42,441.00,-31
1597207413,2020-08-12 06:43,441.00,-31
1597207473,2020-08-12 06:44,440.00,-32
1597207533,2020-08-12 06:45,440.00,-31
1597207593,2020-08-12 06:46,440.00,-30
1597207653,2020-08-12 06:47,436.00,-31
1597207713,2020-08-12 06:48,440.00,-30
1597207773,2020-08-12 06:49,439.00,-31
1597207834,2020-08-12 06:50,441.00,-30
1597207894,2020-08-12 06:51,440.00,-30
1597207954,2020-08-12 06:52,440.00,-30
1597208014,2020-08-12 06:53,439.00,-31
1597208074,2020-08-12 06:54,441.00,-31
1597208134,2020-08-12 06:55,443.00,-30
1597208194,2020-08-12 06:56,441.00,-31
1597208254,2020-08-12 06:57,438.00,-32
1597208314,2020-08-12 06:58,439.00,-33
1597208374,2020-08-12 06:59,440.00,-31
1597208434,2020-08-12 07:00,438.00,-33
1597208494,2020-08-12 07:01,438.00,-30
1597208555,2020-08-12 07:02,438.00,-31
1597208615,2020-08-12 07:03,435.00,-31
1597208675,2020-08-12 07:04,439.00,-30
1597208735,2020-08-12 07:05,437.00,-30
1597208795,2020-08-12 07:06,436.00,-30
1597208855,2020-08-12 07:07,435.00,-31
1597208915,2020-08-12 07:08,434.00,-30
1597208975,2020-08-12 07:09,436.00,-31
1597209035,2020-08-12 07:10,437.00,-31
1597209095,2020-08-12 07:11,435.00,-31
1597209155,2020-08-12 07:12,436.00,-31
1597209215,2020-08-12 07:13,434.00,-31
1597209275,2020-08-12 07:14,437.00,-30
1597209335,2020-08-12 07:15,434.00,-32
1597209395,2020-08-12 07:16,435.00,-30
1597209455,2020-08-12 07:17,434.00,-31
1597209515,2020-08-12 07:18,436.00,-31
1597209576,2020-08-12 07:19,432.00,-30
1597209636,2020-08-12 07:20,433.00,-30
1597209696,2020-08-12 07:21,434.00,-30
1597209756,2020-08-12 07:22,430.00,-30
1597209816,2020-08-12 07:23,430.00,-31
1597209876,2020-08-12 07:24,430.00,-32
1597209936,2020-08-12 07:25,430.00,-30
1597209996,2020-08-12 07:26,428.00,-31
1597210056,2020-08-12 07:27,428.00,-31
1597210116,2020-08-12 07:28,429.00,-30
1597210176,2020-08-12 07:29,428.00,-32
1597210236,2020-08-12 07:30,426.00,-30
1597210296,2020-08-12 07:31,428.00,-32
1597210356,2020-08-12 07:32,427.00,-32
1597210416,2020-08-12 07:33,423.00,-30
1597210476,2020-08-12 07:34,422.00,-31
1597210536,2020-08-12 07:35,424.00,-30
1597210597,2020-08-12 07:36,423.00,-30
1597210657,2020-08-12 07:37,424.00,-30
1597210717,2020-08-12 07:38,419.00,-31
1597210777,2020-08-12 07:39,421.00,-30
1597210837,2020-08-12 07:40,421.00,-30
1597210897,2020-08-12 07:41,421.00,-30
1597210957,2020-08-12 07:42,422.00,-31
1597211017,2020-08-12 07:43,424.00,-30
1597211077,2020-08-12 07:44,425.00,-30
1597211138,2020-08-12 07:45,425.00,-30
1597211198,2020-08-12 07:46,425.00,-31
1597211258,2020-08-12 07:47,425.00,-31
1597211318,2020-08-12 07:48,427.00,-30
1597211378,2020-08-12 07:49,424.00,-31
1597211438,2020-08-12 07:50,426.00,-31
1597211498,2020-08-12 07:51,429.00,-31
1597211558,2020-08-12 07:52,426.00,-31
1597211618,2020-08-12 07:53,422.00,-30
1597211678,2020-08-12 07:54,423.00,-31
1597211738,2020-08-12 07:55,423.00,-31
1597211798,2020-08-12 07:56,424.00,-32
1597211858,2020-08-12 07:57,422.00,-30
1597211919,2020-08-12 07:58,423.00,-31
1597211979,2020-08-12 07:59,423.00,-30
1597212039,2020-08-12 08:00,424.00,-30
1597212099,2020-08-12 08:01,423.00,-33
1597212159,2020-08-12 08:02,423.00,-30
1597212219,2020-08-12 08:03,424.00,-33
1597212279,2020-08-12 08:04,425.00,-31
1597212339,2020-08-12 08:05,421.00,-30
1597212399,2020-08-12 08:06,423.00,-30
1597212459,2020-08-12 08:07,423.00,-30
1597212519,2020-08-12 08:08,421.00,-30
1597212580,2020-08-12 08:09,419.00,-31
1597212640,2020-08-12 08:10,421.00,-30
1597212700,2020-08-12 08:11,420.00,-30
1597212760,2020-08-12 08:12,420.00,-30
1597212820,2020-08-12 08:13,420.00,-31
1597212880,2020-08-12 08:14,422.00,-30
1597212940,2020-08-12 08:15,420.00,-30
1597213000,2020-08-12 08:16,420.00,-30
1597213060,2020-08-12 08:17,420.00,-30
1597213121,2020-08-12 08:18,419.00,-30
1597213181,2020-08-12 08:19,415.00,-30
1597213241,2020-08-12 08:20,418.00,-30
1597213301,2020-08-12 08:21,417.00,-31
1597213361,2020-08-12 08:22,417.00,-30
1597213421,2020-08-12 08:23,415.00,-30
1597213481,2020-08-12 08:24,417.00,-32
1597213541,2020-08-12 08:25,416.00,-30
1597213601,2020-08-12 08:26,417.00,-30
1597213661,2020-08-12 08:27,418.00,-30
1597213721,2020-08-12 08:28,415.00,-30
1597213781,2020-08-12 08:29,418.00,-30
1597213841,2020-08-12 08:30,418.00,-32
1597213901,2020-08-12 08:31,417.00,-31
1597213962,2020-08-12 08:32,417.00,-32
1597214022,2020-08-12 08:33,417.00,-30
1597214082,2020-08-12 08:34,417.00,-30
1597214142,2020-08-12 08:35,415.00,-31
1597214202,2020-08-12 08:36,417.00,-31
1597214262,2020-08-12 08:37,417.00,-31
1597214322,2020-08-12 08:38,414.00,-31
1597214382,2020-08-12 08:39,415.00,-31
1597214442,2020-08-12 08:40,413.00,-31
1597214502,2020-08-12 08:41,420.00,-30
1597214562,2020-08-12 08:42,418.00,-30
1597214622,2020-08-12 08:43,420.00,-30
1597214682,2020-08-12 08:44,420.00,-30
1597214742,2020-08-12 08:45,419.00,-30
1597214802,2020-08-12 08:46,417.00,-30
1597214862,2020-08-12 08:47,418.00,-31
1597214922,2020-08-12 08:48,417.00,-30
1597214982,2020-08-12 08:49,416.00,-30
1597215043,2020-08-12 08:50,415.00,-30
1597215103,2020-08-12 08:51,419.00,-30
1597215163,2020-08-12 08:52,417.00,-31
1597215223,2020-08-12 08:53,417.00,-30
1597215283,2020-08-12 08:54,416.00,-30
1597215343,2020-08-12 08:55,415.00,-31
1597215403,2020-08-12 08:56,413.00,-31
1597215463,2020-08-12 08:57,412.00,-30
1597215523,2020-08-12 08:58,412.00,-32
1597215583,2020-08-12 08:59,408.00,-33
1597215643,2020-08-12 09:00,411.00,-30
1597215703,2020-08-12 09:01,411.00,-30
1597215763,2020-08-12 09:02,411.00,-31
1597215823,2020-08-12 09:03,410.00,-32
1597215883,2020-08-12 09:04,407.00,-31
1597215944,2020-08-12 09:05,407.00,-32
1597216004,2020-08-12 09:06,408.00,-30
1597216064,2020-08-12 09:07,408.00,-30
1597216124,2020-08-12 09:08,409.00,-32
1597216184,2020-08-12 09:09,410.00,-31
1597216244,2020-08-12 09:10,406.00,-29
1597216304,2020-08-12 09:11,409.00,-31
1597216364,2020-08-12 09:12,407.00,-30
1597216424,2020-08-12 09:13,405.00,-32
1597216484,2020-08-12 09:14,407.00,-30
1597216544,2020-08-12 09:15,406.00,-30
1597216604,2020-08-12 09:16,408.00,-30
1597216664,2020-08-12 09:17,406.00,-30
1597216724,2020-08-12 09:18,406.00,-30
1597216784,2020-08-12 09:19,409.00,-30
1597216844,2020-08-12 09:20,412.00,-31
1597216905,2020-08-12 09:21,406.00,-30
1597216965,2020-08-12 09:22,406.00,-30
1597217025,2020-08-12 09:23,405.00,-31
1597217085,2020-08-12 09:24,405.00,-30
1597217145,2020-08-12 09:25,405.00,-30
1597217205,2020-08-12 09:26,405.00,-29
1597217265,2020-08-12 09:27,402.00,-31
1597217325,2020-08-12 09:28,401.00,-32
1597217385,2020-08-12 09:29,409.00,-30
1597217445,2020-08-12 09:30,406.00,-31
1597217505,2020-08-12 09:31,404.00,-32
1597217565,2020-08-12 09:32,406.00,-30
1597217625,2020-08-12 09:33,406.00,-30
1597217685,2020-08-12 09:34,404.00,-32
1597217745,2020-08-12 09:35,404.00,-30
1597217805,2020-08-12 09:36,404.00,-31
1597217865,2020-08-12 09:37,403.00,-29
1597217925,2020-08-12 09:38,408.00,-32
1597217986,2020-08-12 09:39,404.00,-30
1597218046,2020-08-12 09:40,407.00,-31
1597218106,2020-08-12 09:41,406.00,-30
1597218166,2020-08-12 09:42,409.00,-30
1597218226,2020-08-12 09:43,409.00,-30
1597218286,2020-08-12 09:44,409.00,-30
1597218346,2020-08-12 09:45,412.00,-30
1597218406,2020-08-12 09:46,411.00,-30
1597218466,2020-08-12 09:47,410.00,-29
1597218526,2020-08-12 09:48,406.00,-32
1597218586,2020-08-12 09:49,409.00,-32
1597218646,2020-08-12 09:50,410.00,-30
1597218706,2020-08-12 09:51,408.00,-30
1597218766,2020-08-12 09:52,410.00,-31
1597218827,2020-08-12 09:53,407.00,-30
1597218887,2020-08-12 09:54,405.00,-30
1597218947,2020-08-12 09:55,406.00,-29
1597219007,2020-08-12 09:56,404.00,-34
1597219067,2020-08-12 09:57,405.00,-35
1597219127,2020-08-12 09:58,407.00,-31
1597219187,2020-08-12 09:59,409.00,-31
1597219247,2020-08-12 10:00,410.00,-32
1597219307,2020-08-12 10:01,410.00,-31
1597219367,2020-08-12 10:02,411.00,-29
1597219427,2020-08-12 10:03,411.00,-30
1597219487,2020-08-12 10:04,406.00,-29
1597219548,2020-08-12 10:05,406.00,-29
1597219608,2020-08-12 10:06,408.00,-30
1597219668,2020-08-12 10:07,402.00,-29
1597219728,2020-08-12 10:08,401.00,-30
1597219788,2020-08-12 10:09,411.00,-30
1597219848,2020-08-12 10:10,414.00,-30
1597219908,2020-08-12 10:11,407.00,-32
1597219968,2020-08-12 10:12,407.00,-30
1597220028,2020-08-12 10:13,409.00,-32
1597220088,2020-08-12 10:14,407.00,-31